DW9882 Weather Reports


time (UTC)temp
F
wind
direction
speed
knots
gust
knots
rain 1hr
in
rain 24hr
in
rain mn
in
humidity
%
barometer
mb
20260506191204 36 47 0.0 0.9 0.03 0.10 0.06 93 1021.2
20260506185704 36 47 0.0 1.7 0.02 0.09 0.05 94 1021.4
20260506185204 36 47 0.9 2.6 0.02 0.09 0.05 94 1021.5
20260506184704 36 47 0.0 2.6 0.03 0.09 0.05 94 1021.5
20260506184204 35 47 0.9 1.7 0.02 0.08 0.04 94 1021.5
20260506183705 35 47 0.9 1.7 0.02 0.08 0.04 95 1021.5
20260506183204 35 47 0.9 2.6 0.02 0.08 0.04 95 1021.6
20260506182705 34 47 0.0 2.6 0.02 0.08 0.04 95 1021.7
20260506182204 34 47 0.9 2.6 0.01 0.07 0.03 95 1021.7
20260506181704 34 91 1.7 2.6 0.01 0.07 0.03 95 1021.7
20260506181204 34 68 2.6 7.8 0.01 0.07 0.03 94 1021.6
20260506180204 34 61 1.7 7.0 0.01 0.07 0.03 95 1021.6
20260506175704 34 45 2.6 5.2 0.01 0.07 0.03 95 1021.6
20260506175204 34 71 2.6 6.1 0.01 0.07 0.03 95 1021.6
20260506174705 33 4 1.7 7.0 0.00 0.06 0.02 95 1021.6
20260506174204 33 40 2.6 7.0 0.00 0.06 0.02 95 1021.6
20260506173705 33 66 2.6 7.0 0.00 0.06 0.02 95 1021.6
20260506173204 33 59 3.5 7.8 0.00 0.06 0.02 95 1021.6
20260506172704 33 28 1.7 2.6 0.01 0.06 0.02 95 1021.5
20260506172204 32 49 1.7 5.2 0.01 0.06 0.02 95 1021.5
20260506171704 33 42 2.6 7.8 0.01 0.06 0.02 95 1021.5
20260506171204 33 3 2.6 5.2 0.01 0.06 0.02 95 1021.4
20260506170704 33 53 5.2 8.7 0.01 0.06 0.02 95 1021.4
20260506170204 33 349 0.9 4.3 0.01 0.06 0.02 95 1021.3
20260506165704 33 29 1.7 6.1 0.01 0.06 0.02 95 1021.1
20260506165205 33 354 1.7 7.0 0.01 0.06 0.02 95 1021.1
20260506164704 33 2 1.7 7.8 0.01 0.06 0.02 95 1021.0
20260506163704 33 355 2.6 7.0 0.01 0.06 0.02 96 1020.9
20260506163205 33 352 2.6 8.7 0.01 0.06 0.02 95 1020.8
20260506162204 33 7 1.7 5.2 0.00 0.05 0.01 96 1020.6
20260506161204 33 2 4.3 7.8 0.01 0.05 0.01 96 1020.5
20260506160704 33 11 1.7 7.0 0.01 0.05 0.01 96 1020.6
20260506155705 33 339 1.7 2.6 0.01 0.05 0.01 96 1020.4
20260506154704 33 12 0.9 2.6 0.01 0.05 0.01 96 1020.4
20260506154204 33 12 0.0 1.7 0.01 0.05 0.01 96 1020.5
20260506153704 33 9 1.7 2.6 0.01 0.05 0.01 96 1020.5
20260506153204 33 350 0.0 0.0 0.01 0.05 0.01 96 1020.5
20260506152704 33 9 0.0 0.0 0.01 0.05 0.01 96 1020.4
20260506152204 33 354 0.0 0.0 0.01 0.05 0.01 96 1020.4
20260506151704 33 0 0.0 0.0 0.00 0.04 0.00 96 1020.3
20260506151204 33 5 0.0 0.0 0.00 0.04 0.00 96 1020.3
20260506150704 33 15 0.0 0.0 0.00 0.04 0.00 96 1020.2
20260506150203 33 15 0.0 0.0 0.00 0.04 0.00 96 1020.2
20260506145704 33 15 0.0 0.0 0.00 0.04 0.00 96 1020.2
20260506145204 33 18 0.0 0.0 0.00 0.04 0.00 96 1020.1
20260506144704 33 19 0.0 0.0 0.00 0.04 0.00 96 1020.1
20260506144203 33 19 0.0 0.0 0.00 0.04 0.00 96 1020.1
20260506143704 33 19 0.0 0.0 0.00 0.04 0.00 96 1020.1
20260506143204 33 19 0.0 0.0 0.00 0.04 0.00 96 1020.0
20260506142704 33 19 0.0 0.0 0.00 0.04 0.00 96 1019.9
20260506142204 33 18 0.0 0.0 0.00 0.04 0.00 96 1019.8
20260506141704 33 18 0.0 0.9 0.00 0.04 0.00 96 1019.8
20260506141204 33 18 0.0 0.0 0.00 0.04 0.00 96 1019.9
20260506140704 33 18 0.0 0.0 0.00 0.04 0.00 96 1019.8
20260506140205 33 18 0.0 0.0 0.00 0.04 0.00 96 1019.8
20260506135204 33 18 0.0 0.0 0.00 0.04 0.00 96 1019.7
20260506134204 32 18 0.0 0.0 0.00 0.04 0.00 96 1019.6
20260506133204 32 18 0.0 0.0 0.00 0.04 0.00 96 1019.5
20260506132704 32 19 0.0 0.0 0.00 0.04 0.00 96 1019.4
20260506132204 32 19 0.0 0.0 0.00 0.04 0.00 96 1019.4
20260506131704 32 19 0.0 0.0 0.00 0.04 0.00 96 1019.4
20260506131204 32 19 0.0 0.0 0.00 0.04 0.00 96 1019.4
20260506130704 32 19 0.0 0.0 0.00 0.04 0.00 96 1019.2
20260506130204 33 19 0.0 0.0 0.00 0.04 0.00 96 1019.1
20260506125704 33 19 0.0 0.0 0.00 0.04 0.00 96 1019.0
20260506125204 32 19 0.0 0.0 0.00 0.04 0.00 96 1018.9
20260506124704 32 19 0.0 0.0 0.00 0.04 0.00 96 1018.8
20260506123704 32 19 0.0 0.0 0.00 0.05 0.00 96 1018.7
20260506123204 32 19 0.0 0.0 0.00 0.05 0.00 96 1018.6
20260506121204 32 19 0.0 0.0 0.00 0.07 0.00 96 1018.8
20260506120704 32 19 0.0 0.0 0.00 0.07 0.00 96 1018.7
20260506120204 32 19 0.0 0.0 0.00 0.09 0.00 96 1018.7
20260506115704 32 19 0.0 0.0 0.00 0.09 0.00 96 1018.6
20260506115204 32 19 0.0 0.0 0.00 0.09 0.00 96 1018.5
20260506114704 32 19 0.0 0.0 0.00 0.09 0.00 96 1018.5
20260506114204 32 19 0.0 0.0 0.00 0.10 0.00 96 1018.4
20260506113703 32 19 0.0 0.0 0.00 0.10 0.00 96 1018.4
20260506113204 32 19 0.0 0.0 0.00 0.10 0.00 96 1018.5
20260506112704 32 19 0.0 0.0 0.00 0.10 0.00 96 1018.4
20260506111704 32 19 0.0 0.0 0.00 0.10 0.00 96 1018.4
20260506111204 32 19 0.0 0.0 0.00 0.10 0.00 96 1018.2
20260506110704 32 19 0.0 0.0 0.00 0.10 0.00 96 1018.1
20260506105704 32 19 0.0 0.0 0.00 0.10 0.00 96 1018.2
20260506105204 32 19 0.0 0.0 0.00 0.10 0.00 96 1018.2
20260506104703 32 19 0.0 0.0 0.00 0.10 0.00 96 1018.1
20260506104204 32 19 0.0 0.0 0.00 0.10 0.00 96 1018.1
20260506103704 32 19 0.0 0.0 0.00 0.10 0.00 96 1018.0
20260506103204 32 19 0.0 0.0 0.00 0.10 0.00 96 1018.1
20260506102704 32 19 0.0 0.0 0.00 0.10 0.00 96 1018.2
20260506102204 32 19 0.0 0.0 0.00 0.10 0.00 96 1018.2
20260506101703 32 19 0.0 0.0 0.00 0.10 0.00 96 1018.2
20260506101203 32 19 0.0 0.0 0.00 0.10 0.00 96 1018.3
20260506100704 32 19 0.0 0.0 0.00 0.10 0.00 96 1018.3
20260506100204 32 19 0.0 0.0 0.00 0.10 0.00 96 1018.4
20260506095204 32 19 0.0 0.0 0.00 0.10 0.00 96 1018.3
20260506094704 32 19 0.0 0.0 0.00 0.10 0.00 96 1018.3
20260506094203 32 19 0.0 0.0 0.00 0.10 0.00 96 1018.3
20260506093704 32 19 0.0 0.0 0.00 0.11 0.00 96 1018.2
20260506093204 32 19 0.0 0.0 0.00 0.11 0.00 96 1018.1
20260506092704 32 19 0.0 0.0 0.00 0.11 0.00 96 1018.0
20260506092203 32 19 0.0 0.0 0.00 0.11 0.00 96 1018.1
20260506091704 32 19 0.0 0.0 0.00 0.11 0.00 96 1018.1
20260506090704 32 19 0.0 0.0 0.00 0.11 0.00 96 1018.0
20260506090204 32 19 0.0 0.0 0.00 0.11 0.00 96 1017.9
20260506085704 32 19 0.0 0.0 0.00 0.11 0.00 96 1017.9
20260506085203 33 19 0.0 0.0 0.00 0.11 0.00 96 1018.0
20260506084704 33 19 0.0 0.0 0.00 0.11 0.00 96 1018.0
20260506083704 33 19 0.0 0.0 0.00 0.11 0.00 96 1017.9
20260506083204 33 19 0.0 0.0 0.00 0.11 0.00 96 1018.0
20260506082704 33 19 0.0 0.0 0.00 0.11 0.00 96 1017.9
20260506081703 33 19 0.0 0.0 0.00 0.11 0.00 96 1018.1
20260506081203 33 19 0.0 0.0 0.00 0.11 0.00 96 1018.1
20260506080703 33 19 0.0 0.0 0.00 0.11 0.00 96 1018.1
20260506080204 33 19 0.0 0.0 0.00 0.11 0.00 96 1018.2
20260506073203 33 19 0.0 0.0 0.00 0.11 0.00 96 1018.0
20260506072204 33 19 0.0 0.0 0.00 0.11 0.00 96 1017.9
20260506071704 33 19 0.0 0.0 0.00 0.11 0.00 96 1018.0
20260506071204 33 19 0.0 0.0 0.00 0.11 0.00 96 1018.0
20260506070703 33 19 0.0 0.0 0.00 0.11 0.00 96 1018.0
20260506062204 33 19 0.0 0.0 0.00 0.11 0.00 96 1017.7
20260506061703 33 19 0.0 0.0 0.00 0.11 0.00 96 1017.7
20260506061203 33 19 0.0 0.0 0.00 0.11 0.00 96 1017.6
20260506060704 33 19 0.0 0.0 0.00 0.11 0.00 96 1017.5
20260506060203 33 19 0.0 0.0 0.00 0.11 0.00 96 1017.5
20260506051204 33 19 0.0 0.0 0.00 0.11 0.18 96 1017.5
20260506050704 33 19 0.0 0.0 0.00 0.11 0.18 96 1017.5
20260506050204 33 19 0.0 0.0 0.00 0.11 0.18 96 1017.4
20260506044704 33 355 0.0 0.0 0.00 0.12 0.18 96 1017.2
20260506044203 33 355 0.0 0.0 0.00 0.13 0.18 96 1017.2
20260506043704 33 355 0.0 0.0 0.00 0.14 0.18 95 1017.4
20260506043204 33 355 0.0 0.0 0.00 0.15 0.18 95 1017.4
20260506042704 33 355 0.0 0.0 0.00 0.15 0.18 95 1017.3
20260506042203 33 355 0.0 0.0 0.00 0.16 0.18 95 1017.4
20260506041203 33 355 0.0 0.0 0.00 0.17 0.18 96 1017.3
20260506040203 33 355 0.0 0.0 0.01 0.19 0.18 96 1017.1
20260506035203 33 355 0.0 0.0 0.01 0.21 0.18 96 1017.3
20260506034703 33 355 0.0 0.0 0.01 0.22 0.18 96 1017.3
20260506034204 33 355 0.0 0.0 0.01 0.22 0.18 96 1017.1
20260506033703 33 355 0.0 0.0 0.01 0.22 0.18 96 1017.2
20260506033203 33 355 0.0 0.0 0.01 0.22 0.18 95 1017.1
20260506032204 33 355 0.0 0.0 0.01 0.22 0.18 95 1017.0
20260506031704 33 355 0.0 0.0 0.01 0.22 0.18 95 1016.9
20260506030704 33 355 0.0 0.0 0.01 0.22 0.18 95 1016.7
20260506030204 33 355 0.0 0.0 0.00 0.21 0.17 95 1016.6
20260506025703 33 355 0.0 0.0 0.00 0.21 0.17 95 1016.6
20260506025203 33 355 0.0 0.0 0.00 0.21 0.17 95 1016.5
20260506023703 33 355 0.0 0.0 0.00 0.21 0.17 95 1016.4
20260506023203 33 355 0.0 0.0 0.00 0.21 0.17 95 1016.3
20260506022703 33 355 0.0 0.0 0.00 0.21 0.17 95 1016.2
20260506022203 33 355 0.0 0.0 0.00 0.21 0.17 95 1016.1
20260506021703 33 355 0.0 0.0 0.01 0.21 0.17 95 1016.0
20260506020703 33 355 0.0 0.0 0.01 0.21 0.17 95 1015.8
20260506020203 33 355 0.0 0.0 0.01 0.21 0.17 95 1015.8
20260506015704 33 355 0.0 0.0 0.01 0.21 0.17 95 1015.8
20260506015204 33 355 0.0 0.0 0.01 0.21 0.17 95 1015.6
20260506014703 33 355 0.0 0.0 0.01 0.21 0.17 95 1015.6
20260506014203 33 355 0.0 0.0 0.01 0.21 0.17 95 1015.6
20260506013704 33 355 0.0 0.0 0.01 0.21 0.17 95 1015.6
20260506013203 33 355 0.0 0.0 0.01 0.21 0.17 95 1015.7
20260506012703 33 355 0.0 0.0 0.01 0.21 0.17 95 1015.6
20260506012203 33 355 0.0 0.0 0.01 0.21 0.17 95 1015.6
20260506011703 33 355 0.0 0.0 0.00 0.20 0.16 95 1015.4
20260506010703 33 355 0.0 1.7 0.00 0.20 0.16 95 1015.4
20260506010203 33 355 0.0 0.0 0.00 0.20 0.16 95 1015.4
20260506005703 33 355 0.0 0.0 0.00 0.20 0.16 95 1015.3
20260506005203 33 355 0.0 0.0 0.00 0.20 0.16 95 1015.4
20260506004704 33 355 0.0 0.0 0.00 0.20 0.16 95 1015.5
20260506004203 33 355 0.0 0.0 0.00 0.20 0.16 95 1015.3
20260506003704 33 355 0.0 0.0 0.00 0.20 0.16 95 1015.2
20260506003204 33 355 0.0 0.0 0.00 0.20 0.16 95 1015.2
20260506002704 33 355 0.0 0.0 0.00 0.20 0.16 95 1015.3
20260506002204 33 355 0.0 0.0 0.00 0.20 0.16 95 1015.3
20260506001704 33 355 0.0 0.0 0.00 0.20 0.16 95 1015.3
20260506001203 33 355 0.0 0.0 0.00 0.20 0.16 95 1015.2
20260506000703 33 27 0.0 0.0 0.00 0.20 0.16 95 1015.2
20260506000204 33 26 0.0 0.0 0.00 0.20 0.16 95 1015.2
20260505235203 33 5 0.0 0.0 0.00 0.20 0.16 95 1015.1
20260505234703 33 19 0.0 0.0 0.00 0.20 0.16 94 1015.0
20260505234203 33 19 0.0 0.0 0.00 0.20 0.16 94 1015.0
20260505233703 33 19 0.0 0.0 0.00 0.20 0.16 94 1015.1
20260505233203 33 19 0.0 1.7 0.00 0.20 0.16 94 1015.0
20260505232704 33 17 0.9 2.6 0.00 0.20 0.16 94 1014.9
20260505232203 33 355 0.0 2.6 0.00 0.20 0.16 94 1014.8
20260505231703 33 340 0.9 4.3 0.01 0.20 0.16 94 1014.7
20260505231203 34 357 1.7 7.8 0.01 0.20 0.16 94 1014.7
20260505230703 34 18 1.7 5.2 0.01 0.20 0.16 94 1014.7
20260505230203 34 19 1.7 7.0 0.01 0.20 0.16 94 1014.7
20260505225703 34 19 1.7 2.6 0.01 0.20 0.16 94 1014.8
20260505225203 34 10 0.0 2.6 0.01 0.20 0.16 94 1014.9
20260505224703 34 10 0.9 2.6 0.01 0.20 0.16 93 1014.9
20260505224203 35 327 0.9 2.6 0.01 0.20 0.16 93 1014.8
20260505222203 36 323 3.5 8.7 0.01 0.20 0.16 93 1014.1
20260505221703 36 351 1.7 8.7 0.00 0.19 0.15 93 1014.2
20260505220703 37 347 1.7 10.4 0.00 0.19 0.15 93 1014.2
20260505215203 39 13 3.5 7.8 0.00 0.19 0.15 93 1013.8
20260505214703 39 30 1.7 4.3 0.00 0.19 0.15 93 1013.8
20260505214203 39 47 2.6 10.4 0.01 0.19 0.15 94 1013.8
20260505213703 39 1 1.7 5.2 0.01 0.19 0.15 93 1013.8
20260505213203 39 30 1.7 5.2 0.01 0.19 0.15 94 1013.9
20260505212703 39 38 1.7 4.3 0.01 0.19 0.15 94 1014.0
20260505211203 39 49 1.7 4.3 0.01 0.19 0.15 94 1014.0
20260505205704 39 49 0.9 2.6 0.01 0.19 0.15 94 1014.1
20260505205203 39 49 0.9 2.6 0.01 0.19 0.15 94 1014.2
20260505204703 39 19 0.9 2.6 0.01 0.19 0.15 94 1014.3
20260505204203 39 0 0.9 2.6 0.00 0.18 0.14 94 1014.4
20260505203703 39 9 0.9 7.0 0.00 0.18 0.14 94 1014.5
20260505203203 39 65 0.9 2.6 0.00 0.18 0.14 94 1014.5
20260505202702 40 355 1.7 4.3 0.00 0.18 0.14 94 1014.7
20260505202203 39 51 1.7 4.3 0.00 0.18 0.14 94 1014.8
20260505201703 39 61 0.9 4.3 0.00 0.19 0.14 94 1014.8
20260505195203 40 44 1.7 4.3 0.00 0.20 0.14 94 1014.9
20260505194203 40 32 1.7 2.6 0.02 0.26 0.38 94 1014.8
20260505193203 40 75 1.7 2.6 0.00 0.27 0.24 94 1014.8
20260505192202 39 48 2.6 2.6 0.00 0.32 0.24 94 1014.7